This is the latest recevied weather packets stored in our database for station/object N2UFM. If no packets are shown the sender has not sent any weather packets the latest 10 day(s).
| Time | Temp. | Humidity | Pressure | Rain* | Wind** | Luminosity | Snow |
|---|---|---|---|---|---|---|---|
| 1777483737 | 14.44° C | 73% | 1015.2 hPa | 0 mm | - | - | - |
| 1777483436 | 14.44° C | 73% | 1015.3 hPa | 0 mm | - | - | - |
| 1777483136 | 13.89° C | 74% | 1015.5 hPa | 0 mm | - | - | - |
| 1777482836 | 14.44° C | 74% | 1015.4 hPa | 0 mm | - | - | - |
| 1777482536 | 14.44° C | 71% | 1015.4 hPa | 0 mm | - | - | - |
| 1777482236 | 14.44° C | 71% | 1015.4 hPa | 0 mm | - | - | - |
| 1777481936 | 14.44° C | 71% | 1015.6 hPa | 0 mm | - | - | - |
| 1777481636 | 14.44° C | 71% | 1015.7 hPa | 0 mm | - | - | - |
| 1777481336 | 13.89° C | 75% | 1015.8 hPa | 0 mm | - | - | - |
| 1777481035 | 13.89° C | 74% | 1015.8 hPa | 0 mm | - | - | - |
| 1777480735 | 13.33° C | 76% | 1015.9 hPa | 0 mm | - | - | - |
| 1777480435 | 13.33° C | 76% | 1016 hPa | 0 mm | - | - | - |
| 1777480135 | 13.33° C | 75% | 1016.3 hPa | 0 mm | - | - | - |
| 1777479835 | 13.33° C | 76% | 1016.3 hPa | 0 mm | - | - | - |
| 1777479535 | 13.33° C | 75% | 1016.4 hPa | 0 mm | - | - | - |
| 1777479234 | 13.33° C | 75% | 1016.3 hPa | 0 mm | - | - | - |
| 1777478934 | 13.33° C | 75% | 1016.3 hPa | 0 mm | - | - | - |
| 1777478634 | 13.33° C | 75% | 1016.3 hPa | 0 mm | - | - | - |
| 1777478334 | 13.33° C | 75% | 1016.3 hPa | 0 mm | - | - | - |
| 1777478034 | 13.33° C | 71% | 1016.4 hPa | 0 mm | - | - | - |
| 1777477734 | 13.89° C | 71% | 1016.4 hPa | 0 mm | - | - | - |
| 1777477434 | 13.89° C | 72% | 1016.4 hPa | 0 mm | - | - | - |
| 1777477133 | 13.89° C | 73% | 1016.6 hPa | 0 mm | - | - | - |
| 1777476833 | 14.44° C | 70% | 1016.6 hPa | 0 mm | - | - | - |
| 1777476533 | 14.44° C | 69% | 1016.8 hPa | 0 mm | - | - | - |
* Rain latest hour (hover to see other rain measurements)
** Current wind speed in m/s (hover to see current wind gust speed)